Regional Weather Roundup
Issued by NWS

Home | Current Version | Previous Version | Text Only | Print | Product List | Glossary On
Versions: 1 2 3 4 5 6 7 8 9 10 11 12 13 14 15 16 17 18 19 20 21 22 23 24 25 26 27 28 29 30 31 32 33 34 35 36 37 38 39 40 41 42 43 44 45 46 47 48 49 50
000
ASUS45 KREV 251410
RWRNV
NEVADA REGIONAL WEATHER ROUNDUP
NATIONAL WEATHER SERVICE RENO NV
700 AM PDT WED MAY 25 2016

NOTE: "FAIR" INDICATES FEW OR NO CLOUDS BELOW 12,000 FEET WITH NO
SIGNIFICANT WEATHER AND/OR OBSTRUCTIONS TO VISIBILITY.

NVZ001-003-004-251500-
WESTERN NEVADA

CITY           SKY/WX    TMP DP  RH WIND       PRES   REMARKS
RENO           PTSUNNY   48  38  68 CALM      30.08R
CARSON CITY    FAIR      45  37  76 CALM      30.10R
MINDEN         FAIR      41  41 100 SE3       30.10R
SLIDE MTN        N/A     32  32 100 CALM        N/A
FALLON         PTSUNNY   50  42  74 S5        30.04R
LOVELOCK       PTSUNNY   49  40  71 SE5       30.03R
HAWTHORNE      MOSUNNY   50  46  87 CALM      30.06R
$$

NVZ002-CAZ072-073-251500-
NORTHERN AND CENTRAL SIERRA

CITY           SKY/WX    TMP DP  RH WIND       PRES   REMARKS
S. LAKE TAHOE  PTSUNNY   34  32  92 S5        30.11R
TRUCKEE        PTSUNNY   39  37  93 CALM      30.11S
SQUAW VLY 8000 NOT AVBL
SUSANVILLE     PTSUNNY   46  43  87 CALM      30.08R
BLUE CANYON    SUNNY     44  36  73 VRB3      30.09S
MAMMOTH LAKES  CLOUDY    40  35  83 W6        30.11R
BRIDGEPORT     PTSUNNY   40  34  79 CALM      30.08R
$$

NVZ030-031-036-251500-
NORTHERN NEVADA

CITY           SKY/WX    TMP DP  RH WIND       PRES   REMARKS
ELKO           CLOUDY    45  42  89 SW5       30.05R
WINNEMUCCA     CLOUDY    45  38  76 CALM      30.04R
WENDOVER       CLOUDY    52  37  58 CALM      30.02R
$$

NVZ035-037-251500-
CENTRAL NEVADA

CITY           SKY/WX    TMP DP  RH WIND       PRES   REMARKS
ELY            MOSUNNY   35  32  88 S10       30.07R
EUREKA           N/A     42  35  76 SW3       30.06R
$$

NVZ013-014-251500-
SOUTH CENTRAL NEVADA

CITY           SKY/WX    TMP DP  RH WIND       PRES   REMARKS
TONOPAH        CLOUDY    45  37  73 N8        30.06R
$$

NVZ017-020-022-251500-
SOUTHERN NEVADA

CITY           SKY/WX    TMP DP  RH WIND       PRES   REMARKS
LAS VEGAS      MOSUNNY   63  37  38 SW5       29.91R
N. LAS VEGAS   SUNNY     63  33  32 NE5       29.94R
NELLIS AFB     SUNNY     64  38  38 SE2       29.94R
HENDERSON      SUNNY     61  38  42 S10       29.97R
MERCURY        SUNNY     52  33  48 CALM      29.97R
$$



USA.gov is the U.S. government's official web portal to all federal, state and local government web resources and services.